29-01-2023, 00:00:07,    262,    0.0,    2.4,   0.00,   0.00, 1025.8,   82.1, -999.0
29-01-2023, 00:00:17,    262,    0.3,    2.3,   0.00,   0.00, 1025.9,   82.4, -999.0
29-01-2023, 00:00:27,    262,    0.3,    2.5,   0.00,   0.00, 1025.9,   82.5, -999.0
29-01-2023, 00:00:37,    262,    0.0,    2.3,   0.00,   0.00, 1025.8,   82.2, -999.0
29-01-2023, 00:00:47,    261,    0.0,    2.3,   0.00,   0.00, 1025.8,   82.1, -999.0
29-01-2023, 00:00:57,    262,    0.0,    2.4,   0.00,   0.00, 1025.8,   82.0, -999.0
29-01-2023, 00:01:07,    262,    0.0,    2.3,   0.00,   0.00, 1025.8,   82.1, -999.0
29-01-2023, 00:01:17,    262,    0.0,    2.3,   0.00,   0.00, 1025.8,   82.1, -999.0
29-01-2023, 00:01:27,    262,    0.0,    2.4,   0.00,   0.00, 1025.8,   82.2, -999.0
29-01-2023, 00:01:37,    262,    0.0,    2.4,   0.00,   0.00, 1025.8,   82.2, -999.0
29-01-2023, 00:01:47,    261,    0.0,    2.4,   0.00,   0.00, 1025.8,   82.3, -999.0
29-01-2023, 00:01:57,    262,    0.0,    2.3,   0.00,   0.00, 1025.8,   82.4, -999.0
29-01-2023, 00:02:07,    262,    0.0,    2.3,   0.00,   0.00, 1025.8,   82.4, -999.0
29-01-2023, 00:02:17,    261,    0.0,    2.4,   0.00,   0.00, 1025.7,   82.3, -999.0
29-01-2023, 00:02:27,    261,    0.0,    2.3,   0.00,   0.00, 1025.8,   82.2, -999.0
29-01-2023, 00:02:37,    262,    0.0,    2.4,   0.00,   0.00, 1025.8,   82.1, -999.0
29-01-2023, 00:02:47,    262,    0.0,    2.3,   0.00,   0.00, 1025.8,   82.1, -999.0
29-01-2023, 00:02:57,    262,    0.0,    2.3,   0.00,   0.00, 1025.8,   82.1, -999.0
29-01-2023, 00:03:06,    262,    0.0,    2.3,   0.00,   0.00, 1025.8,   82.1, -999.0
29-01-2023, 00:03:17,    261,    0.0,    2.4,   0.00,   0.00, 1025.8,   82.1, -999.0
29-01-2023, 00:03:27,    261,    0.0,    2.4,   0.00,   0.00, 1025.8,   82.3, -999.0
29-01-2023, 00:03:37,    261,    0.0,    2.4,   0.00,   0.00, 1025.8,   82.4, -999.0
29-01-2023, 00:03:46,    232,    0.5,    2.4,   0.00,   0.00, 1025.8,   82.6, -999.0
29-01-2023, 00:03:57,    236,    1.1,    2.5,   0.00,   0.00, 1025.9,   82.7, -999.0
29-01-2023, 00:04:07,    236,    0.0,    2.4,   0.00,   0.00, 1025.8,   82.2, -999.0
29-01-2023, 00:04:16,    235,    0.0,    2.4,   0.00,   0.00, 1025.8,   82.2, -999.0
29-01-2023, 00:04:26,    236,    0.0,    2.4,   0.00,   0.00, 1025.9,   82.3, -999.0
29-01-2023, 00:04:37,    236,    0.0,    2.3,   0.00,   0.00, 1025.8,   82.2, -999.0
29-01-2023, 00:04:46,    236,    0.0,    2.4,   0.00,   0.00, 1025.8,   82.2, -999.0
29-01-2023, 00:04:56,    236,    0.0,    2.4,   0.00,   0.00, 1025.8,   82.0, -999.0
29-01-2023, 00:05:06,    237,    0.0,    2.5,   0.00,   0.00, 1025.8,   82.1, -999.0
29-01-2023, 00:05:17,    237,    0.0,    2.4,   0.00,   0.00, 1025.8,   82.1, -999.0
29-01-2023, 00:05:26,    237,    0.0,    2.4,   0.00,   0.00, 1025.8,   82.1, -999.0
29-01-2023, 00:05:36,    238,    0.0,    2.4,   0.00,   0.00, 1025.8,   82.2, -999.0
29-01-2023, 00:05:46,    237,    0.0,    2.3,   0.00,   0.00, 1025.8,   82.0, -999.0
29-01-2023, 00:05:56,    237,    0.0,    2.4,   0.00,   0.00, 1025.8,   82.0, -999.0
29-01-2023, 00:06:06,    238,    0.0,    2.4,   0.00,   0.00, 1025.8,   81.9, -999.0
29-01-2023, 00:06:16,    237,    0.0,    2.4,   0.00,   0.00, 1025.8,   82.0, -999.0
29-01-2023, 00:06:26,    238,    0.0,    2.4,   0.00,   0.00, 1025.8,   82.0, -999.0
29-01-2023, 00:06:36,    237,    0.0,    2.4,   0.00,   0.00, 1025.8,   82.2, -999.0
29-01-2023, 00:06:46,    237,    0.0,    2.3,   0.00,   0.00, 1025.8,   82.1, -999.0
29-01-2023, 00:06:56,    237,    0.0,    2.4,   0.00,   0.00, 1025.8,   82.2, -999.0
29-01-2023, 00:07:06,    238,    0.0,    2.4,   0.00,   0.00, 1025.8,   82.2, -999.0
29-01-2023, 00:07:16,    238,    0.0,    2.4,   0.00,   0.00, 1025.8,   82.4, -999.0
29-01-2023, 00:07:26,    238,    0.0,    2.3,   0.00,   0.00, 1025.8,   82.2, -999.0
29-01-2023, 00:07:36,    239,    0.0,    2.4,   0.00,   0.00, 1025.8,   82.3, -999.0
29-01-2023, 00:07:46,    238,    0.0,    2.4,   0.00,   0.00, 1025.8,   82.2, -999.0
29-01-2023, 00:07:56,    239,    0.0,    2.3,   0.00,   0.00, 1025.8,   82.0, -999.0
29-01-2023, 00:08:06,    239,    0.0,    2.3,   0.00,   0.00, 1025.8,   82.0, -999.0
29-01-2023, 00:08:16,    239,    0.0,    2.3,   0.00,   0.00, 1025.8,   82.0, -999.0
29-01-2023, 00:08:26,    238,    0.0,    2.4,   0.00,   0.00, 1025.8,   81.9, -999.0
29-01-2023, 00:08:36,    238,    0.0,    2.4,   0.00,   0.00, 1025.8,   81.9, -999.0
29-01-2023, 00:08:46,    239,    0.0,    2.4,   0.00,   0.00, 1025.8,   82.0, -999.0
29-01-2023, 00:08:56,    239,    0.0,    2.3,   0.00,   0.00, 1025.8,   82.2, -999.0
29-01-2023, 00:09:06,    239,    0.0,    2.4,   0.00,   0.00, 1025.8,   82.0, -999.0
29-01-2023, 00:09:16,    239,    0.0,    2.4,   0.00,   0.00, 1025.8,   82.0, -999.0
29-01-2023, 00:09:26,    239,    0.0,    2.3,   0.00,   0.00, 1025.8,   82.0, -999.0
29-01-2023, 00:09:36,    239,    0.0,    2.4,   0.00,   0.00, 1025.8,   82.0, -999.0
29-01-2023, 00:09:46,    241,    0.0,    2.4,   0.00,   0.00, 1025.8,   82.1, -999.0
29-01-2023, 00:09:56,    244,    0.4,    2.5,   0.00,   0.00, 1025.9,   82.5, -999.0
29-01-2023, 00:10:06,    244,    0.2,    2.5,   0.00,   0.00, 1025.9,   82.2, -999.0
29-01-2023, 00:10:16,    243,    0.0,    2.4,   0.00,   0.00, 1025.8,   82.0, -999.0
29-01-2023, 00:10:26,    244,    0.0,    2.4,   0.00,   0.00, 1025.8,   82.1, -999.0
29-01-2023, 00:10:36,    267,    0.2,    2.4,   0.00,   0.00, 1025.9,   82.3, -999.0
29-01-2023, 00:10:46,    266,    0.0,    2.4,   0.00,   0.00, 1025.8,   82.1, -999.0
29-01-2023, 00:10:56,    266,    0.0,    2.4,   0.00,   0.00, 1025.8,   82.0, -999.0
29-01-2023, 00:11:05,    266,    0.0,    2.4,   0.00,   0.00, 1025.8,   82.2, -999.0
29-01-2023, 00:11:16,    266,    0.0,    2.4,   0.00,   0.00, 1025.8,   82.3, -999.0
29-01-2023, 00:11:26,    266,    0.0,    2.5,   0.00,   0.00, 1025.8,   82.3, -999.0
29-01-2023, 00:11:36,    266,    0.0,    2.4,   0.00,   0.00, 1025.8,   82.3, -999.0
29-01-2023, 00:11:45,    266,    0.0,    2.4,   0.00,   0.00, 1025.8,   82.3, -999.0
29-01-2023, 00:11:56,    266,    0.0,    2.4,   0.00,   0.00, 1025.8,   82.1, -999.0
29-01-2023, 00:12:06,    266,    0.0,    2.4,   0.00,   0.00, 1025.7,   82.0, -999.0
29-01-2023, 00:12:16,    266,    0.2,    2.4,   0.00,   0.00, 1025.8,   82.3, -999.0
29-01-2023, 00:12:25,    266,    0.4,    2.5,   0.00,   0.00, 1025.8,   82.3, -999.0
29-01-2023, 00:12:36,    266,    0.1,    2.4,   0.00,   0.00, 1025.8,   82.2, -999.0
29-01-2023, 00:12:46,    266,    0.0,    2.3,   0.00,   0.00, 1025.8,   81.8, -999.0
29-01-2023, 00:12:55,    266,    0.0,    2.4,   0.00,   0.00, 1025.8,   82.0, -999.0
29-01-2023, 00:13:05,    266,    0.1,    2.3,   0.00,   0.00, 1025.8,   82.0, -999.0
29-01-2023, 00:13:16,    266,    0.1,    2.3,   0.00,   0.00, 1025.8,   81.9, -999.0
29-01-2023, 00:13:26,    266,    0.0,    2.4,   0.00,   0.00, 1025.7,   81.9, -999.0
29-01-2023, 00:13:35,    266,    0.1,    2.4,   0.00,   0.00, 1025.8,   82.1, -999.0
29-01-2023, 00:13:45,    266,    0.0,    2.4,   0.00,   0.00, 1025.8,   82.0, -999.0
29-01-2023, 00:13:56,    266,    0.0,    2.3,   0.00,   0.00, 1025.7,   82.0, -999.0
29-01-2023, 00:14:05,    266,    0.0,    2.3,   0.00,   0.00, 1025.7,   82.0, -999.0
29-01-2023, 00:14:15,    266,    0.0,    2.3,   0.00,   0.00, 1025.8,   82.1, -999.0
29-01-2023, 00:14:25,    266,    0.0,    2.3,   0.00,   0.00, 1025.7,   82.2, -999.0
29-01-2023, 00:14:36,    266,    0.0,    2.3,   0.00,   0.00, 1025.7,   82.2, -999.0
29-01-2023, 00:14:45,    266,    0.0,    2.3,   0.00,   0.00, 1025.7,   82.2, -999.0
29-01-2023, 00:14:55,    266,    0.0,    2.4,   0.00,   0.00, 1025.7,   82.1, -999.0
29-01-2023, 00:15:05,    266,    0.0,    2.3,   0.00,   0.00, 1025.7,   82.1, -999.0
29-01-2023, 00:15:15,    266,    0.0,    2.4,   0.00,   0.00, 1025.7,   82.1, -999.0
29-01-2023, 00:15:25,    265,    0.0,    2.3,   0.00,   0.00, 1025.7,   82.0, -999.0
29-01-2023, 00:15:35,    266,    0.0,    2.3,   0.00,   0.00, 1025.7,   82.1, -999.0
29-01-2023, 00:15:45,    266,    0.0,    2.4,   0.00,   0.00, 1025.7,   82.2, -999.0
29-01-2023, 00:15:55,    265,    0.0,    2.3,   0.00,   0.00, 1025.7,   82.3, -999.0
29-01-2023, 00:16:05,    266,    0.0,    2.4,   0.00,   0.00, 1025.7,   82.4, -999.0
29-01-2023, 00:16:15,    266,    0.0,    2.3,   0.00,   0.00, 1025.7,   82.4, -999.0
29-01-2023, 00:16:25,    266,    0.3,    2.5,   0.00,   0.00, 1025.9,   82.7, -999.0
29-01-2023, 00:16:35,    266,    0.1,    2.4,   0.00,   0.00, 1025.7,   82.4, -999.0
29-01-2023, 00:16:45,    266,    0.0,    2.3,   0.00,   0.00, 1025.7,   82.2, -999.0
29-01-2023, 00:16:55,    265,    0.0,    2.3,   0.00,   0.00, 1025.7,   82.1, -999.0
29-01-2023, 00:17:05,    265,    0.0,    2.4,   0.00,   0.00, 1025.7,   82.0, -999.0
29-01-2023, 00:17:15,    265,    0.0,    2.4,   0.00,   0.00, 1025.7,   82.2, -999.0
29-01-2023, 00:17:25,    265,    0.0,    2.4,   0.00,   0.00, 1025.7,   82.2, -999.0
29-01-2023, 00:17:35,    265,    0.0,    2.4,   0.00,   0.00, 1025.7,   82.3, -999.0
29-01-2023, 00:17:45,    265,    0.0,    2.4,   0.00,   0.00, 1025.7,   82.4, -999.0
29-01-2023, 00:17:55,    265,    0.0,    2.4,   0.00,   0.00, 1025.7,   82.3, -999.0
29-01-2023, 00:18:05,    265,    0.0,    2.3,   0.00,   0.00, 1025.7,   82.3, -999.0
29-01-2023, 00:18:15,    266,    0.0,    2.4,   0.00,   0.00, 1025.7,   82.1, -999.0
29-01-2023, 00:18:25,    265,    0.0,    2.4,   0.00,   0.00, 1025.7,   82.1, -999.0
29-01-2023, 00:18:35,    265,    0.0,    2.4,   0.00,   0.00, 1025.7,   82.2, -999.0
29-01-2023, 00:18:45,    265,    0.0,    2.4,   0.00,   0.00, 1025.7,   82.1, -999.0
29-01-2023, 00:18:55,    263,    0.6,    2.5,   0.00,   0.00, 1025.8,   82.5, -999.0
29-01-2023, 00:19:05,    262,    0.2,    2.5,   0.00,   0.00, 1025.8,   82.3, -999.0
29-01-2023, 00:19:15,    262,    0.0,    2.3,   0.00,   0.00, 1025.7,   82.0, -999.0
29-01-2023, 00:19:25,    262,    0.0,    2.3,   0.00,   0.00, 1025.7,   81.9, -999.0
29-01-2023, 00:19:35,    262,    0.0,    2.4,   0.00,   0.00, 1025.7,   82.0, -999.0
29-01-2023, 00:19:44,    262,    0.0,    2.3,   0.00,   0.00, 1025.7,   82.0, -999.0
29-01-2023, 00:19:55,    262,    0.0,    2.3,   0.00,   0.00, 1025.7,   82.0, -999.0
29-01-2023, 00:20:05,    262,    0.0,    2.3,   0.00,   0.00, 1025.7,   82.0, -999.0
29-01-2023, 00:20:15,    262,    0.0,    2.3,   0.00,   0.00, 1025.7,   82.0, -999.0
29-01-2023, 00:20:24,    261,    0.0,    2.3,   0.00,   0.00, 1025.7,   82.0, -999.0
29-01-2023, 00:20:35,    261,    0.0,    2.3,   0.00,   0.00, 1025.7,   82.0, -999.0
29-01-2023, 00:20:45,    261,    0.0,    2.4,   0.00,   0.00, 1025.7,   82.0, -999.0
29-01-2023, 00:20:54,    261,    0.0,    2.4,   0.00,   0.00, 1025.7,   82.1, -999.0
29-01-2023, 00:21:04,    260,    0.0,    2.4,   0.00,   0.00, 1025.7,   82.1, -999.0
29-01-2023, 00:21:15,    261,    0.0,    2.4,   0.00,   0.00, 1025.7,   82.0, -999.0
29-01-2023, 00:21:25,    261,    0.0,    2.4,   0.00,   0.00, 1025.7,   82.0, -999.0
29-01-2023, 00:21:34,    261,    0.0,    2.4,   0.00,   0.00, 1025.7,   82.0, -999.0
29-01-2023, 00:21:45,    261,    0.1,    2.4,   0.00,   0.00, 1025.8,   82.2, -999.0
29-01-2023, 00:21:55,    261,    0.0,    2.4,   0.00,   0.00, 1025.7,   82.0, -999.0
29-01-2023, 00:22:04,    261,    0.5,    2.4,   0.00,   0.00, 1025.8,   82.4, -999.0
29-01-2023, 00:22:14,    257,    0.8,    2.5,   0.00,   0.00, 1025.8,   82.3, -999.0
29-01-2023, 00:22:25,    257,    0.2,    2.4,   0.00,   0.00, 1025.8,   82.1, -999.0
29-01-2023, 00:22:34,    257,    0.0,    2.5,   0.00,   0.00, 1025.7,   81.9, -999.0
29-01-2023, 00:22:44,    257,    0.0,    2.4,   0.00,   0.00, 1025.7,   81.9, -999.0
29-01-2023, 00:22:54,    257,    0.0,    2.3,   0.00,   0.00, 1025.7,   81.9, -999.0
29-01-2023, 00:23:05,    254,    0.0,    2.4,   0.00,   0.00, 1025.8,   82.0, -999.0
29-01-2023, 00:23:14,    249,    0.3,    2.4,   0.00,   0.00, 1025.8,   82.2, -999.0
29-01-2023, 00:23:24,    249,    0.1,    2.4,   0.00,   0.00, 1025.8,   82.1, -999.0
29-01-2023, 00:23:34,    249,    0.0,    2.4,   0.00,   0.00, 1025.7,   81.9, -999.0
29-01-2023, 00:23:45,    255,    0.0,    2.4,   0.00,   0.00, 1025.8,   81.9, -999.0
29-01-2023, 00:23:54,    256,    0.0,    2.4,   0.00,   0.00, 1025.8,   82.0, -999.0
29-01-2023, 00:24:04,    256,    0.0,    2.4,   0.00,   0.00, 1025.8,   81.9, -999.0
29-01-2023, 00:24:14,    256,    0.0,    2.3,   0.00,   0.00, 1025.8,   82.0, -999.0
29-01-2023, 00:24:24,    256,    0.0,    2.4,   0.00,   0.00, 1025.8,   82.0, -999.0
29-01-2023, 00:24:34,    256,    0.0,    2.4,   0.00,   0.00, 1025.7,   81.8, -999.0
29-01-2023, 00:24:44,    256,    0.0,    2.3,   0.00,   0.00, 1025.7,   81.9, -999.0
29-01-2023, 00:24:54,    257,    0.3,    2.5,   0.00,   0.00, 1025.8,   82.1, -999.0
29-01-2023, 00:25:04,    271,    1.5,    2.4,   0.00,   0.00, 1025.9,   82.2, -999.0
29-01-2023, 00:25:14,    282,    1.3,    2.5,   0.00,   0.00, 1025.9,   82.2, -999.0
29-01-2023, 00:25:24,    276,    0.3,    2.5,   0.00,   0.00, 1025.9,   82.0, -999.0
29-01-2023, 00:25:34,    276,    0.3,    2.4,   0.00,   0.00, 1025.9,   82.0, -999.0
29-01-2023, 00:25:44,    275,    0.0,    2.3,   0.00,   0.00, 1025.8,   81.7, -999.0
29-01-2023, 00:25:54,    261,    0.0,    2.4,   0.00,   0.00, 1025.8,   81.8, -999.0
29-01-2023, 00:26:04,    261,    0.2,    2.4,   0.00,   0.00, 1025.8,   82.0, -999.0
29-01-2023, 00:26:14,    260,    0.4,    2.4,   0.00,   0.00, 1025.9,   82.2, -999.0
29-01-2023, 00:26:24,    260,    0.0,    2.4,   0.00,   0.00, 1025.8,   81.9, -999.0
29-01-2023, 00:26:34,    259,    0.3,    2.4,   0.00,   0.00, 1025.8,   82.1, -999.0
29-01-2023, 00:26:44,    259,    0.9,    2.4,   0.00,   0.00, 1025.9,   82.2, -999.0
29-01-2023, 00:26:54,    259,    0.7,    2.4,   0.00,   0.00, 1025.9,   82.2, -999.0
29-01-2023, 00:27:04,    249,    0.4,    2.4,   0.00,   0.00, 1025.8,   81.9, -999.0
29-01-2023, 00:27:14,    249,    0.0,    2.3,   0.00,   0.00, 1025.8,   81.7, -999.0
29-01-2023, 00:27:24,    251,    0.4,    2.4,   0.00,   0.00, 1025.8,   82.0, -999.0
29-01-2023, 00:27:34,    250,    0.0,    2.4,   0.00,   0.00, 1025.7,   81.9, -999.0
29-01-2023, 00:27:44,    250,    0.0,    2.4,   0.00,   0.00, 1025.7,   81.9, -999.0
29-01-2023, 00:27:54,    250,    0.0,    2.3,   0.00,   0.00, 1025.7,   81.9, -999.0
29-01-2023, 00:28:04,    256,    0.0,    2.4,   0.00,   0.00, 1025.7,   82.0, -999.0
29-01-2023, 00:28:14,    258,    0.0,    2.4,   0.00,   0.00, 1025.7,   82.0, -999.0
29-01-2023, 00:28:24,    257,    0.0,    2.4,   0.00,   0.00, 1025.7,   81.9, -999.0
29-01-2023, 00:28:34,    257,    0.0,    2.3,   0.00,   0.00, 1025.7,   81.9, -999.0
29-01-2023, 00:28:44,    257,    0.0,    2.4,   0.00,   0.00, 1025.7,   82.0, -999.0
29-01-2023, 00:28:54,    257,    0.0,    2.4,   0.00,   0.00, 1025.7,   81.9, -999.0
29-01-2023, 00:29:04,    258,    0.0,    2.4,   0.00,   0.00, 1025.7,   82.0, -999.0
29-01-2023, 00:29:14,    256,    0.5,    2.5,   0.00,   0.00, 1025.8,   82.2, -999.0
29-01-2023, 00:29:23,    256,    1.0,    2.4,   0.00,   0.00, 1025.8,   82.2, -999.0
29-01-2023, 00:29:34,    254,    1.0,    2.4,   0.00,   0.00, 1025.8,   82.2, -999.0
29-01-2023, 00:29:44,    253,    0.0,    2.4,   0.00,   0.00, 1025.7,   81.8, -999.0
29-01-2023, 00:29:54,    253,    0.0,    2.4,   0.00,   0.00, 1025.7,   81.9, -999.0
29-01-2023, 00:30:03,    254,    0.0,    2.4,   0.00,   0.00, 1025.7,   81.9, -999.0
29-01-2023, 00:30:14,    253,    0.0,    2.4,   0.00,   0.00, 1025.7,   81.8, -999.0
29-01-2023, 00:30:24,    253,    0.0,    2.4,   0.00,   0.00, 1025.7,   81.8, -999.0
29-01-2023, 00:30:33,    254,    0.0,    2.4,   0.00,   0.00, 1025.7,   81.9, -999.0
29-01-2023, 00:30:43,    253,    0.0,    2.4,   0.00,   0.00, 1025.7,   81.8, -999.0
29-01-2023, 00:30:54,    248,    0.0,    2.4,   0.00,   0.00, 1025.7,   81.9, -999.0
29-01-2023, 00:31:04,    248,    0.1,    2.4,   0.00,   0.00, 1025.8,   82.1, -999.0
29-01-2023, 00:31:13,    248,    0.4,    2.5,   0.00,   0.00, 1025.8,   82.3, -999.0
29-01-2023, 00:31:23,    248,    0.1,    2.4,   0.00,   0.00, 1025.8,   82.0, -999.0
29-01-2023, 00:31:34,    248,    0.0,    2.4,   0.00,   0.00, 1025.7,   81.9, -999.0
29-01-2023, 00:31:43,    248,    0.0,    2.4,   0.00,   0.00, 1025.7,   81.7, -999.0
29-01-2023, 00:31:53,    248,    0.3,    2.4,   0.00,   0.00, 1025.8,   82.0, -999.0
29-01-2023, 00:32:03,    251,    0.2,    2.4,   0.00,   0.00, 1025.8,   82.0, -999.0
29-01-2023, 00:32:13,    253,    0.0,    2.4,   0.00,   0.00, 1025.7,   81.8, -999.0
29-01-2023, 00:32:23,    254,    0.0,    2.4,   0.00,   0.00, 1025.7,   81.7, -999.0
29-01-2023, 00:32:33,    253,    0.0,    2.4,   0.00,   0.00, 1025.7,   81.7, -999.0
29-01-2023, 00:32:43,    253,    0.0,    2.4,   0.00,   0.00, 1025.7,   81.9, -999.0
29-01-2023, 00:32:53,    250,    0.2,    2.4,   0.00,   0.00, 1025.7,   82.1, -999.0
29-01-2023, 00:33:03,    250,    0.4,    2.5,   0.00,   0.00, 1025.8,   82.2, -999.0
29-01-2023, 00:33:13,    251,    0.0,    2.4,   0.00,   0.00, 1025.7,   81.9, -999.0
29-01-2023, 00:33:23,    250,    0.1,    2.4,   0.00,   0.00, 1025.8,   82.0, -999.0
29-01-2023, 00:33:33,    250,    0.0,    2.4,   0.00,   0.00, 1025.7,   81.6, -999.0
29-01-2023, 00:33:43,    250,    0.0,    2.4,   0.00,   0.00, 1025.7,   81.7, -999.0
29-01-2023, 00:33:53,    250,    0.1,    2.4,   0.00,   0.00, 1025.8,   81.9, -999.0
29-01-2023, 00:34:03,    251,    0.0,    2.4,   0.00,   0.00, 1025.7,   81.9, -999.0
29-01-2023, 00:34:13,    250,    0.0,    2.4,   0.00,   0.00, 1025.7,   81.8, -999.0
29-01-2023, 00:34:23,    250,    0.0,    2.3,   0.00,   0.00, 1025.7,   81.8, -999.0
29-01-2023, 00:34:33,    251,    0.0,    2.3,   0.00,   0.00, 1025.7,   81.7, -999.0
29-01-2023, 00:34:43,    250,    0.0,    2.4,   0.00,   0.00, 1025.7,   81.9, -999.0
29-01-2023, 00:34:53,    251,    0.0,    2.4,   0.00,   0.00, 1025.7,   81.9, -999.0
29-01-2023, 00:35:03,    250,    0.0,    2.4,   0.00,   0.00, 1025.7,   81.9, -999.0
29-01-2023, 00:35:13,    251,    0.0,    2.4,   0.00,   0.00, 1025.7,   81.9, -999.0
29-01-2023, 00:35:23,    251,    0.0,    2.4,   0.00,   0.00, 1025.7,   81.9, -999.0
29-01-2023, 00:35:33,    251,    0.0,    2.4,   0.00,   0.00, 1025.7,   82.0, -999.0
29-01-2023, 00:35:43,    251,    0.2,    2.4,   0.00,   0.00, 1025.7,   82.1, -999.0
29-01-2023, 00:35:54,    265,    1.4,    2.5,   0.00,   0.00, 1025.8,   82.2, -999.0
29-01-2023, 00:36:03,    266,    0.8,    2.4,   0.00,   0.00, 1025.8,   82.2, -999.0
29-01-2023, 00:36:13,    267,    0.4,    2.4,   0.00,   0.00, 1025.8,   82.2, -999.0
29-01-2023, 00:36:23,    266,    0.2,    2.4,   0.00,   0.00, 1025.8,   82.0, -999.0
29-01-2023, 00:36:33,    266,    0.0,    2.3,   0.00,   0.00, 1025.7,   81.8, -999.0
29-01-2023, 00:36:43,    267,    0.1,    2.4,   0.00,   0.00, 1025.7,   82.1, -999.0
29-01-2023, 00:36:53,    266,    0.0,    2.4,   0.00,   0.00, 1025.7,   81.9, -999.0
29-01-2023, 00:37:03,    266,    0.7,    2.5,   0.00,   0.00, 1025.8,   82.2, -999.0
29-01-2023, 00:37:13,    266,    0.9,    2.4,   0.00,   0.00, 1025.8,   82.3, -999.0
29-01-2023, 00:37:22,    266,    0.0,    2.3,   0.00,   0.00, 1025.7,   82.1, -999.0
29-01-2023, 00:37:33,    266,    0.2,    2.4,   0.00,   0.00, 1025.7,   82.2, -999.0
29-01-2023, 00:37:43,    264,    1.1,    2.4,   0.00,   0.00, 1025.8,   82.4, -999.0
29-01-2023, 00:37:53,    263,    0.0,    2.4,   0.00,   0.00, 1025.7,   82.2, -999.0
29-01-2023, 00:38:03,    254,    0.4,    2.4,   0.00,   0.00, 1025.7,   82.2, -999.0
29-01-2023, 00:38:13,    255,    1.6,    2.5,   0.00,   0.00, 1025.8,   82.5, -999.0
29-01-2023, 00:38:23,    256,    1.5,    2.5,   0.00,   0.00, 1025.8,   82.3, -999.0
29-01-2023, 00:38:32,    256,    0.9,    2.4,   0.00,   0.00, 1025.8,   82.3, -999.0
29-01-2023, 00:38:43,    257,    0.7,    2.4,   0.00,   0.00, 1025.8,   82.3, -999.0
29-01-2023, 00:38:53,    257,    0.1,    2.3,   0.00,   0.00, 1025.7,   82.1, -999.0
29-01-2023, 00:39:02,    256,    0.0,    2.3,   0.00,   0.00, 1025.6,   81.9, -999.0
29-01-2023, 00:39:12,    257,    0.0,    2.4,   0.00,   0.00, 1025.6,   81.9, -999.0
29-01-2023, 00:39:23,    256,    0.0,    2.4,   0.00,   0.00, 1025.6,   81.9, -999.0
29-01-2023, 00:39:33,    251,    0.9,    2.4,   0.00,   0.00, 1025.7,   82.3, -999.0
29-01-2023, 00:39:42,    246,    1.6,    2.4,   0.00,   0.00, 1025.7,   82.3, -999.0
29-01-2023, 00:39:52,    246,    0.7,    2.4,   0.00,   0.00, 1025.7,   82.3, -999.0
29-01-2023, 00:40:03,    229,    0.7,    2.4,   0.00,   0.00, 1025.7,   82.2, -999.0
29-01-2023, 00:40:12,    206,    0.0,    2.4,   0.00,   0.00, 1025.6,   82.0, -999.0
29-01-2023, 00:40:22,    274,    0.3,    2.5,   0.00,   0.00, 1025.6,   82.2, -999.0
29-01-2023, 00:40:32,    270,    0.3,    2.4,   0.00,   0.00, 1025.6,   82.2, -999.0
29-01-2023, 00:40:43,    270,    0.2,    2.3,   0.00,   0.00, 1025.6,   82.2, -999.0
29-01-2023, 00:40:52,    262,    1.1,    2.4,   0.00,   0.00, 1025.7,   82.3, -999.0
29-01-2023, 00:41:02,    250,    1.3,    2.4,   0.00,   0.00, 1025.7,   82.3, -999.0
29-01-2023, 00:41:12,    250,    0.2,    2.4,   0.00,   0.00, 1025.6,   82.0, -999.0
29-01-2023, 00:41:22,    250,    0.0,    2.4,   0.00,   0.00, 1025.6,   82.0, -999.0
29-01-2023, 00:41:32,    248,    0.0,    2.3,   0.00,   0.00, 1025.6,   82.0, -999.0
29-01-2023, 00:41:42,    246,    0.9,    2.4,   0.00,   0.00, 1025.7,   82.3, -999.0
29-01-2023, 00:41:52,    186,    0.9,    2.4,   0.00,   0.00, 1025.7,   82.4, -999.0
29-01-2023, 00:42:02,    251,    0.7,    2.4,   0.00,   0.00, 1025.7,   82.4, -999.0
29-01-2023, 00:42:12,    251,    1.0,    2.4,   0.00,   0.00, 1025.7,   82.5, -999.0
29-01-2023, 00:42:22,    257,    0.8,    2.4,   0.00,   0.00, 1025.7,   82.4, -999.0
29-01-2023, 00:42:32,    265,    0.4,    2.4,   0.00,   0.00, 1025.6,   82.3, -999.0
29-01-2023, 00:42:42,    264,    0.0,    2.4,   0.00,   0.00, 1025.6,   82.0, -999.0
29-01-2023, 00:42:52,    264,    0.5,    2.4,   0.00,   0.00, 1025.6,   82.3, -999.0
29-01-2023, 00:43:02,    265,    0.0,    2.3,   0.00,   0.00, 1025.6,   82.0, -999.0
29-01-2023, 00:43:12,    264,    0.0,    2.4,   0.00,   0.00, 1025.6,   82.0, -999.0
29-01-2023, 00:43:22,    264,    0.0,    2.3,   0.00,   0.00, 1025.6,   82.0, -999.0
29-01-2023, 00:43:32,    264,    0.0,    2.3,   0.00,   0.00, 1025.5,   82.1, -999.0
29-01-2023, 00:43:42,    265,    0.0,    2.3,   0.00,   0.00, 1025.5,   82.1, -999.0
29-01-2023, 00:43:52,    265,    0.0,    2.3,   0.00,   0.00, 1025.6,   82.3, -999.0
29-01-2023, 00:44:02,    264,    0.1,    2.4,   0.00,   0.00, 1025.6,   82.2, -999.0
29-01-2023, 00:44:12,    265,    0.0,    2.3,   0.00,   0.00, 1025.6,   82.1, -999.0
29-01-2023, 00:44:22,    264,    0.0,    2.4,   0.00,   0.00, 1025.6,   82.2, -999.0
29-01-2023, 00:44:32,    264,    0.0,    2.4,   0.00,   0.00, 1025.5,   82.2, -999.0
29-01-2023, 00:44:42,    265,    0.0,    2.4,   0.00,   0.00, 1025.6,   82.3, -999.0
29-01-2023, 00:44:52,    265,    0.0,    2.3,   0.00,   0.00, 1025.6,   82.3, -999.0
29-01-2023, 00:45:02,    264,    0.2,    2.5,   0.00,   0.00, 1025.6,   82.5, -999.0
29-01-2023, 00:45:12,    264,    0.0,    2.4,   0.00,   0.00, 1025.6,   82.2, -999.0
29-01-2023, 00:45:22,    269,    1.4,    2.4,   0.00,   0.00, 1025.7,   82.5, -999.0
29-01-2023, 00:45:32,    254,    1.2,    2.5,   0.00,   0.00, 1025.7,   82.5, -999.0
29-01-2023, 00:45:42,    250,    0.2,    2.4,   0.00,   0.00, 1025.6,   82.2, -999.0
29-01-2023, 00:45:52,    250,    0.0,    2.2,   0.00,   0.00, 1025.5,   81.9, -999.0
29-01-2023, 00:46:02,    256,    0.4,    2.3,   0.00,   0.00, 1025.7,   82.2, -999.0
29-01-2023, 00:46:12,    255,    0.2,    2.4,   0.00,   0.00, 1025.6,   82.3, -999.0
29-01-2023, 00:46:22,    255,    0.3,    2.3,   0.00,   0.00, 1025.6,   82.1, -999.0
29-01-2023, 00:46:32,    255,    1.6,    2.3,   0.00,   0.00, 1025.7,   82.4, -999.0
29-01-2023, 00:46:42,    244,    1.6,    2.4,   0.00,   0.00, 1025.7,   82.4, -999.0
29-01-2023, 00:46:52,    244,    1.5,    2.4,   0.00,   0.00, 1025.7,   82.4, -999.0